Weather History for KRPJ - October, 2011

Change the Weather History Date:

Tuesday, October 11, 2011

  Actual Average (KRFD) Record (KRFD)
Temperature  
Mean Temperature 66 °F 53 °F  
Max Temperature 77 °F 65 °F 88 °F (1920)
Min Temperature 55 °F 42 °F 25 °F (2009)
Degree Days  
Heating Degree Days 0 12  
Month to date heating degree days 114  
Since 1 July heating degree days 245  
Cooling Degree Days 1 0  
Month to date cooling degree days 8  
Year to date cooling degree days 819  
Growing Degree Days 16 (Base 50)    
Moisture  
Dew Point 52 °F    
Average Humidity 66    
Maximum Humidity 94    
Minimum Humidity 41    
Precipitation  
Precipitation 0.11 in 0.09 in 1.79 in (1912)
Month to date precipitation 0.99  
Year to date precipitation 30.00  
Snow  
Snow 0.00 in 0.00 in T in (2006)
Month to date snowfall 0.0  
Since 1 July snowfall 0.0  
Since 1 September snowfall 0.0  
Snow Depth -    
Sea Level Pressure  
Sea Level Pressure 29.98 in    
Wind  
Wind Speed 4 mph (SSE)    
Max Wind Speed 10 mph    
Max Gust Speed 20 mph    
Visibility 9 miles    
Events Rain    
T = Trace of Precipitation, MM = Missing Value Source: NWS Daily Summary

Daily Weather History Graph

Daily Weather History Graph

Search for Another Location

Airport or City:

Trip Planner

Search our weather history database for the weather conditions in past years. The results will help you decide how hot, cold, wet, or windy it might be!

Date:

Astronomy

Oct. 11, 2011 Rise Set
Actual Time 7:03 AM CDT 6:21 PM CDT
Civil Twilight 6:35 AM CDT 6:49 PM CDT
Nautical Twilight 6:03 AM CDT 7:21 PM CDT
Astronomical Twilight 5:31 AM CDT 7:54 PM CDT
Moon 5:52 PM CDT (10/11) 6:42 AM CDT (10/11)
Length of Visible Light 12h 13m
Length of Day
11h 17m
Full, 100% of the Moon is Illuminated
Oct 11
Full
Oct 11
Full
Oct 19
Last Quarter
Oct 26
New
Nov 2
First Quarter

Hourly Weather History & Observations

Time (CDT) Temp. Dew Point Humidity Pressure Visibility Wind Dir Wind Speed Gust Speed Precip Events Conditions
12:15 AM 57.2 °F 48.2 °F 72% 30.03 in 10.0 mi SSE 4.6 mph - N/A   Clear
12:35 AM 57.2 °F 48.2 °F 72% 30.03 in 10.0 mi Calm Calm - N/A   Clear
12:55 AM 55.4 °F 48.2 °F 77% 30.03 in 10.0 mi Calm Calm - N/A   Clear
1:15 AM 55.4 °F 46.4 °F 72% 30.04 in 10.0 mi Calm Calm - N/A   Clear
1:35 AM 55.4 °F 48.2 °F 77% 30.04 in 10.0 mi SE 5.8 mph - N/A   Clear
1:55 AM 55.4 °F 48.2 °F 77% 30.03 in 10.0 mi SE 4.6 mph - N/A   Clear
2:15 AM 55.4 °F 48.2 °F 77% 30.03 in 10.0 mi SE 4.6 mph - N/A   Clear
2:35 AM 55.4 °F 48.2 °F 77% 30.02 in 10.0 mi SE 3.5 mph - N/A   Clear
3:15 AM 55.4 °F 48.2 °F 77% 30.02 in 10.0 mi SSE 5.8 mph - N/A   Clear
3:35 AM 55.4 °F 48.2 °F 77% 30.03 in 10.0 mi SE 4.6 mph - N/A   Scattered Clouds
3:55 AM 55.4 °F 48.2 °F 77% 30.03 in 10.0 mi SE 5.8 mph - N/A   Scattered Clouds
4:15 AM 55.4 °F 50.0 °F 82% 30.03 in 10.0 mi SE 4.6 mph - N/A   Mostly Cloudy
4:35 AM 57.2 °F 50.0 °F 77% 30.03 in 10.0 mi SE 3.5 mph - N/A   Overcast
5:15 AM 55.4 °F 50.0 °F 82% 30.03 in 10.0 mi SE 3.5 mph - N/A   Overcast
5:35 AM 57.2 °F 50.0 °F 77% 30.03 in 10.0 mi SE 3.5 mph - N/A   Overcast
5:55 AM 57.2 °F 50.0 °F 77% 30.03 in 10.0 mi SE 3.5 mph - N/A   Overcast
6:35 AM 59.0 °F 50.0 °F 72% 30.03 in 10.0 mi SE 3.5 mph - N/A   Overcast
6:55 AM 59.0 °F 50.0 °F 72% 30.03 in 10.0 mi SSE 3.5 mph - N/A   Overcast
7:35 AM 57.2 °F 51.8 °F 82% 30.03 in 10.0 mi Calm Calm - N/A   Mostly Cloudy
8:15 AM 60.8 °F 51.8 °F 72% 30.03 in 10.0 mi SSE 4.6 mph - N/A   Scattered Clouds
8:35 AM 62.6 °F 51.8 °F 68% 30.03 in 10.0 mi South 5.8 mph - N/A   Clear
8:55 AM 64.4 °F 51.8 °F 64% 30.02 in 10.0 mi SSE 5.8 mph - N/A   Clear
9:15 AM 66.2 °F 51.8 °F 60% 30.02 in 10.0 mi South 5.8 mph - N/A   Clear
9:55 AM 69.8 °F 53.6 °F 56% 30.01 in 10.0 mi South 5.8 mph - N/A   Clear
10:15 AM 69.8 °F 53.6 °F 56% 30.01 in 10.0 mi South 6.9 mph - N/A   Clear
10:35 AM 71.6 °F 53.6 °F 53% 30.00 in 10.0 mi South 5.8 mph - N/A   Clear
10:55 AM 71.6 °F 53.6 °F 53% 30.00 in 10.0 mi SSW 6.9 mph - N/A   Clear
11:15 AM 73.4 °F 53.6 °F 50% 30.00 in 10.0 mi SSW 10.4 mph - N/A   Clear
11:35 AM 75.2 °F 51.8 °F 44% 30.00 in 10.0 mi South 8.1 mph - N/A   Scattered Clouds
11:55 AM 75.2 °F 51.8 °F 44% 29.99 in 10.0 mi SSE 10.4 mph - N/A   Clear
12:15 PM 73.4 °F 51.8 °F 47% 29.99 in 10.0 mi SSW 6.9 mph - N/A   Scattered Clouds
12:35 PM 73.4 °F 51.8 °F 47% 29.98 in 10.0 mi South 8.1 mph - N/A   Mostly Cloudy
12:55 PM 73.4 °F 51.8 °F 47% 29.98 in 10.0 mi SSW 6.9 mph - N/A   Mostly Cloudy
1:15 PM 75.2 °F 51.8 °F 44% 29.96 in 10.0 mi SSE 5.8 mph - N/A   Scattered Clouds
1:35 PM 77.0 °F 51.8 °F 41% 29.95 in 10.0 mi SSE 9.2 mph - N/A   Scattered Clouds
2:15 PM 75.2 °F 51.8 °F 44% 29.94 in 10.0 mi SSW 6.9 mph - N/A   Scattered Clouds
2:35 PM 77.0 °F 51.8 °F 41% 29.94 in 10.0 mi SSE 9.2 mph - N/A   Scattered Clouds
3:15 PM 75.2 °F 51.8 °F 44% 29.93 in 10.0 mi SSE 8.1 mph - N/A   Scattered Clouds
3:35 PM 75.2 °F 50.0 °F 41% 29.92 in 10.0 mi South 8.1 mph - N/A   Mostly Cloudy
3:55 PM 73.4 °F 51.8 °F 47% 29.92 in 10.0 mi South 6.9 mph - N/A   Mostly Cloudy
4:15 PM 75.2 °F 50.0 °F 41% 29.92 in 10.0 mi South 4.6 mph - N/A   Mostly Cloudy
4:35 PM 73.4 °F 51.8 °F 47% 29.91 in 10.0 mi South 5.8 mph - N/A   Mostly Cloudy
4:55 PM 73.4 °F 50.0 °F 44% 29.91 in 10.0 mi South 6.9 mph - N/A   Mostly Cloudy
5:55 PM 68.0 °F 55.4 °F 64% 29.92 in 10.0 mi NW 3.5 mph - N/A   Overcast
6:15 PM 68.0 °F 57.2 °F 68% 29.92 in 10.0 mi North 3.5 mph - N/A Rain Light Rain
6:35 PM 64.4 °F 57.2 °F 77% 29.93 in 3.0 mi SSW 3.5 mph 19.6 mph 0.08 in Rain Heavy Rain
6:55 PM 62.6 °F 59.0 °F 88% 29.93 in 7.0 mi Calm Calm - 0.11 in Rain Light Rain
7:15 PM 62.6 °F 59.0 °F 88% 29.92 in 10.0 mi Calm Calm - N/A   Overcast
7:55 PM 62.6 °F 59.0 °F 88% 29.92 in 7.0 mi Calm Calm - N/A   Overcast
8:15 PM 62.6 °F 59.0 °F 88% 29.92 in 7.0 mi Calm Calm - N/A   Overcast
8:35 PM 62.6 °F 59.0 °F 88% 29.92 in 7.0 mi Calm Calm - N/A   Overcast
8:55 PM 62.6 °F 59.0 °F 88% 29.92 in 5.0 mi East 3.5 mph - N/A   Overcast
9:15 PM 62.6 °F 59.0 °F 88% 29.92 in 5.0 mi Calm Calm - N/A   Overcast
9:35 PM 62.6 °F 59.0 °F 88% 29.92 in 7.0 mi Calm Calm - N/A   Overcast
9:55 PM 60.8 °F 59.0 °F 94% 29.92 in 7.0 mi Calm Calm - N/A   Mostly Cloudy
10:15 PM 60.8 °F 59.0 °F 94% 29.92 in 7.0 mi Calm Calm - N/A   Overcast
10:35 PM 62.6 °F 59.0 °F 88% 29.92 in 7.0 mi Calm Calm - 0.03 in Rain Light Rain
10:55 PM 62.6 °F 59.0 °F 88% 29.92 in 7.0 mi East 4.6 mph - 0.03 in   Mostly Cloudy
11:15 PM 60.8 °F 59.0 °F 94% 29.92 in 7.0 mi ESE 5.8 mph - N/A   Mostly Cloudy
11:35 PM 60.8 °F 59.0 °F 94% 29.91 in 7.0 mi East 5.8 mph - N/A Rain Light Rain
11:55 PM 62.6 °F 57.2 °F 82% 29.89 in 10.0 mi East 5.8 mph - N/A   Overcast